CZ-4C R/B, 61572

Orbit data source: Space-Track

CZ-4C R/B, 61572 is space debris in SSO originally from a launch on Tue, 15 Oct 2024 UTC launched from the Jiuquan Satellite Launch Center, China (JSC). Debris objects in space refer to the collection of defunct objects orbiting the Earth. Examples of debris include non-operational satellites, rocket bodies, and fragments generated from explosions, collisions, or faulty payload assembly.

Loading next visibility...
Identifier
61572, 2024-186B
Orbit
SSO
Country
Flag of CNCN / PRC
Related business
Manufacturer
SAST
Mission
Spacecraft
Bus & Motor
CZ-4 STAGE 3, Unknown motor
Mass
~1,000 kg wet, ~1,000 kg dry
Launch date (UTC)
2024-10-15 (2 years ago)
Launch vehicle
Unknown
Launch site
Jiuquan Satellite Launch Center, China (JSC)
Object type
Payload
Rocket body
Debris
Shape & HBR
Cyl, 2.5 m
Radar Cross Section
14.536 m², Large (>1 m²)

Expand to show TLE details & history
Last TLE update: 12 hours ago

TLE from 12 hours ago
0 CZ-4C R/B
1 61572U 24186B   26171.35657105  .00002314  00000-0  15133-3 0  9997
2 61572  97.8601 201.3446 0046923 134.7119 225.7944 15.07948446 92152
Epoch: 2026-06-20T08:33Z
TLE epoch observation values (Epoch: 2026-06-20T08:33:27.738Z)
Latitude
-0.00011°
Longitude
164.40667°
Altitude
568.255 km
Speed
7.564 km/s
True Right ascension
13h 25m 22s
True Declination
0° 00' 00"
Sunlit
Object was in daylight at epoch
Visualization orbit readout
Latitude
Unknown
Longitude
Unknown
Altitude
Unknown
Speed
Unknown
Apparent Right ascension
Unknown
Apparent Declination
Unknown
Sunlit
N/A
Visualization observer readout
Local Sidereal Time
07:23:48
Azimuth
Unknown
Elevation
Unknown
Doppler factor
Unknown
Orbital elements
Apogee altitude
571.931 km
Perigee altitude
507.012 km
Semi-major axis
6,917.609 km
Eccentricity
0.00469
Inclination
97.8601°
RAAN
201.3446°
Arg. of periapsis
134.7119°
True anomaly
225.41053°
Mean anomaly
225.7944°
Eccentric anomaly
225.60231°
Mean motion
3.77233 °/min
Orbital period
95.43 mins
BSTAR
0.00015133
Loading maneuver chart data...
Computing Atmospheric mass density...
Loading historical data...
Loading historical data...
Loading historical data...
Loading historical data...
Loading historical data...
Loading historical data...
Loading historical data...
Other satellites on launch #186 in the year 2024 (2024-10-15 UTC)

Documentation

Showing up to 5 results
|